,

(GMT )
Al Udeid

Weather History for KQIR - August, 2013

Change the Weather History Date:

Saturday, August 17, 2013

  Actual Average Record
Temperature  
Mean Temperature 98 °F -  
Max Temperature 109 °F - - ()
Min Temperature 87 °F - - ()
Cooling Degree Days 33    
Growing Degree Days 48 (Base 50)    
Moisture  
Dew Point 79 °F    
Average Humidity 60    
Maximum Humidity 88    
Minimum Humidity 24    
Precipitation  
Precipitation 0.00 in - - ()
Sea Level Pressure  
Sea Level Pressure 29.51 in    
Wind  
Wind Speed 6 mph ()    
Max Wind Speed 12 mph    
Max Gust Speed -    
Visibility 6.2 miles    
Events      
T = Trace of Precipitation, MM = Missing Value Source: Averaged Metar Reports

Daily Weather History Graph

Daily Weather History Graph

Search for Another Location

Airport or City:

Trip Planner

Search our weather history database for the weather conditions in past years. The results will help you decide how hot, cold, wet, or windy it might be!

Date:

Astronomy

Aug. 17, 2013 Rise Set
Actual Time 5:09 AM AST 6:07 PM AST
Civil Twilight 4:45 AM AST 6:31 PM AST
Nautical Twilight 4:17 AM AST 6:59 PM AST
Astronomical Twilight 3:48 AM AST 7:28 PM AST
Moon 2:51 PM AST (8/17) 12:59 AM AST (8/17)
Length of Visible Light 13h 46m
Length of Day
12h 58m
Waxing Gibbous, 81% of the Moon is Illuminated
Aug 17
Waxing Gibbous
Aug 21
Full
Aug 28
Last Quarter
Sep 5
New
Sep 12
First Quarter

Hourly Weather History & Observations

Time (AST) Temp. Heat Index Dew Point Humidity Pressure Visibility Wind Dir Wind Speed Gust Speed Precip Events Conditions
12:55 AM 89.2 °F 116.0 °F 84.9 °F 87% 29.49 in 6.2 mi ESE 9.2 mph - N/A   Clear
1:55 AM 88.2 °F 112.4 °F 84.2 °F 88% 29.49 in 6.2 mi East 5.8 mph - N/A   Clear
2:55 AM 88.5 °F 111.6 °F 83.5 °F 85% 29.51 in 6.2 mi East 10.4 mph - N/A   Clear
3:55 AM 88.3 °F 110.2 °F 83.1 °F 84% 29.52 in 6.2 mi East 6.9 mph - N/A   Clear
4:55 AM 87.4 °F 108.2 °F 82.9 °F 86% 29.52 in 6.2 mi East 4.6 mph - N/A   Clear
5:55 AM 88.5 °F 112.3 °F 83.8 °F 86% 29.53 in 6.2 mi East 3.5 mph - N/A   Clear
6:55 AM 90.1 °F 115.5 °F 84.0 °F 82% 29.54 in 6.2 mi Calm Calm - N/A   Clear
7:55 AM 93.9 °F 117.8 °F 82.2 °F 69% 29.54 in 6.2 mi Calm Calm - N/A   Clear
8:55 AM 98.6 °F 117.2 °F 78.8 °F 53% 29.54 in 6.2 mi SSE 8.1 mph - N/A   Clear
9:55 AM 104.0 °F 114.0 °F 71.2 °F 35% 29.54 in 6.2 mi SE 6.9 mph - N/A   Partly Cloudy
10:55 AM 106.0 °F 113.6 °F 69.1 °F 30% 29.52 in 6.2 mi SSE 8.1 mph - N/A   Partly Cloudy
11:55 AM 108.3 °F 112.7 °F 64.4 °F 24% 29.51 in 6.2 mi Variable 5.8 mph - N/A   Scattered Clouds
12:55 PM 109.2 °F 115.3 °F 65.7 °F 25% 29.49 in 6.2 mi South 3.5 mph - N/A   Scattered Clouds
1:55 PM 109.0 °F 121.3 °F 72.1 °F 31% 29.48 in 6.2 mi Variable 4.6 mph - N/A   Clear
2:55 PM 108.0 °F 121.1 °F 73.4 °F 33% 29.47 in 6.2 mi ENE 9.2 mph - N/A   Clear
3:55 PM 106.5 °F 122.0 °F 75.2 °F 37% 29.47 in 6.2 mi ENE 9.2 mph - N/A   Clear
4:55 PM 103.6 °F 119.0 °F 75.6 °F 41% 29.47 in 6.2 mi East 11.5 mph - N/A   Clear
5:55 PM 99.1 °F 120.9 °F 80.6 °F 55% 29.47 in 6.2 mi East 11.5 mph - N/A   Clear
6:55 PM 97.0 °F 120.2 °F 81.5 °F 61% 29.49 in 6.2 mi NNE 11.5 mph - N/A   Clear
7:55 PM 95.2 °F 121.2 °F 83.3 °F 68% 29.52 in 6.2 mi NE 10.4 mph - N/A   Clear
8:55 PM 94.6 °F 117.4 °F 81.9 °F 66% 29.53 in 6.2 mi NE 8.1 mph - N/A   Clear
9:55 PM 94.1 °F 116.5 °F 81.5 °F 67% 29.53 in 6.2 mi NE 5.8 mph - N/A   Clear
10:55 PM 92.1 °F 113.4 °F 81.5 °F 71% 29.52 in 6.2 mi East 5.8 mph - N/A   Clear
11:55 PM 90.9 °F 114.0 °F 82.9 °F 77% 29.51 in 6.2 mi East 4.6 mph - N/A   Clear